Location: Madrid
(40.4000°N, 3.6830°W)
Time: 22:53:22
(UTC+02:00)

ISS - Pass Details

Date: 23 July 2017
Orbit: 400 x 408 km, 51.6° (Epoch: 24 July)

Event Time Altitude Azimuth Distance (km) Brightness Sun altitude
Rises 03:25:35 0° 310° (NW) 2,313 0.3 -27.7°
Reaches altitude 10° 03:28:37 10° 340° (NNW) 1,455 -0.4 -27.5°
Maximum altitude 03:30:09 13° 9° (N) 1,304 -0.4 -27.4°
Drops below altitude 10° 03:31:41 10° 37° (NE) 1,455 -0.1 -27.4°
Sets 03:34:43 0° 68° (ENE) 2,315 0.6 -27.2°
